CST,Max TemperatureF,Mean TemperatureF,Min TemperatureF,Max Dew PointF,MeanDew PointF,Min DewpointF,Max Humidity, Mean Humidity, Min Humidity, Max Sea Level PressureIn, Mean Sea Level PressureIn, Min Sea Level PressureIn, Max VisibilityMiles, Mean VisibilityMiles, Min VisibilityMiles, Max Wind SpeedMPH, Mean Wind SpeedMPH, Max Gust SpeedMPH,PrecipitationIn, CloudCover, Events, WindDirDegrees
2012-12-1,64,52,39,54,49,39,93,70,46,29.94,29.85,29.78,10,5,1,13,4,16,0.01,5,,168
2012-12-2,66,50,33,48,39,31,92,66,40,30.04,29.92,29.72,10,8,2,14,5,18,0.00,0,,166
2012-12-3,64,53,41,54,42,30,80,58,35,30.13,29.83,29.60,10,10,10,26,14,32,0.00,0,,305
2012-12-4,63,44,25,30,23,20,75,47,19,30.34,30.28,30.15,10,10,9,13,5,14,0.00,0,,286
2012-12-5,63,47,30,26,22,18,69,44,19,30.31,30.14,29.91,10,10,10,26,12,31,0.00,0,,169
2012-12-6,55,44,32,43,33,25,80,61,42,29.99,29.90,29.86,10,10,8,18,9,25,0.00,2,,336
2012-12-7,45,38,30,36,30,25,82,74,65,30.01,29.94,29.88,10,10,8,10,5,13,T,5,,337
2012-12-8,48,37,26,40,31,22,89,75,60,30.01,29.93,29.82,10,8,2,14,6,17,T,3,Rain,107
2012-12-9,43,31,18,41,22,3,96,68,39,30.25,30.04,29.86,10,7,0,29,18,35,T,5,Fog-Snow,315
2012-12-10,36,21,6,4,2,-1,76,49,22,30.26,30.12,30.00,10,10,10,26,10,32,0.00,0,,249
2012-12-11,47,30,13,19,12,3,67,49,31,30.16,30.10,30.03,10,10,10,14,5,16,0.00,0,,214
2012-12-12,54,39,23,17,15,13,60,41,22,30.13,30.06,30.00,10,10,10,26,15,36,0.00,0,,179
2012-12-13,56,44,31,27,21,18,63,45,26,30.09,30.04,30.00,10,10,10,20,9,30,0.00,0,,172
2012-12-14,59,47,34,44,36,25,71,59,46,30.01,29.80,29.45,10,10,5,26,14,36,0.05,4,Rain-Thunderstorm,164
2012-12-15,58,47,35,45,40,33,86,71,55,29.75,29.60,29.40,10,10,4,30,10,38,0.00,2,,278
2012-12-16,44,34,24,34,29,23,100,77,53,29.85,29.77,29.73,10,3,0,17,5,21,T,2,Fog-Rain,335
2012-12-17,54,38,22,29,25,21,92,61,29,29.85,29.76,29.60,10,6,0,15,7,21,0.00,1,Fog,223
2012-12-18,59,43,26,29,22,16,81,50,19,29.85,29.75,29.60,10,10,3,21,8,26,0.00,0,,217
2012-12-19,46,38,30,36,31,27,92,71,49,29.80,29.66,29.50,10,7,1,44,15,55,0.04,6,Rain-Snow,46
2012-12-20,35,27,19,28,20,13,93,75,52,30.33,30.06,29.67,10,6,0,39,29,53,0.01,4,Fog-Snow,312
2012-12-21,41,27,12,25,17,9,88,68,48,30.38,30.30,30.20,10,10,10,7,2,8,0.00,0,,140
2012-12-22,48,33,17,26,21,14,91,65,38,30.16,30.05,29.96,10,10,9,12,4,14,0.00,0,,287
2012-12-23,29,23,16,22,17,12,88,76,63,30.09,30.03,29.95,9,6,4,15,9,18,0.00,1,,340
2012-12-24,26,21,16,12,11,8,84,68,53,30.18,30.14,30.08,10,9,6,14,10,,0.00,1,,10
2012-12-25,20,16,11,11,7,3,73,61,49,30.41,30.32,30.19,10,10,9,28,17,33,T,5,Snow,11
2012-12-26,26,16,6,10,6,1,80,63,46,30.40,30.27,30.13,10,10,10,15,7,16,0.00,0,,31
2012-12-27,33,25,17,22,18,10,77,68,58,30.11,29.98,29.87,10,10,9,21,9,25,0.00,5,,167
2012-12-28,29,20,11,21,12,6,81,66,50,30.23,30.10,30.00,10,9,8,22,13,26,0.00,3,,309
2012-12-29,44,25,6,19,11,2,80,57,33,30.38,30.31,30.23,10,10,8,16,6,20,0.00,0,,245
2012-12-30,49,34,18,20,18,13,74,52,29,30.29,30.18,30.08,10,10,9,36,14,45,T,0,,190
2012-12-31,37,30,22,25,21,18,92,70,48,30.24,30.11,30.02,10,3,1,16,9,21,T,8,Snow,21